TimeMDT,TemperatureF,Dew PointF,Humidity,Sea Level PressureIn,VisibilityMPH,Wind Direction,Wind SpeedMPH,Gust SpeedMPH,PrecipitationIn,Events,Conditions,WindDirDegrees,DateUTC
12:53 AM,30.9,26.1,82,30.06,10.0,NNW,6.9,-,N/A,,Clear,340,2013-10-09 06:53:00
1:53 AM,34.0,28.0,79,30.06,10.0,North,8.1,-,N/A,,Clear,10,2013-10-09 07:53:00
2:53 AM,30.0,26.1,85,30.10,10.0,North,4.6,-,N/A,,Clear,360,2013-10-09 08:53:00
3:53 AM,30.0,28.0,92,30.12,10.0,WSW,4.6,-,N/A,,Mostly Cloudy,250,2013-10-09 09:53:00
4:41 AM,33.8,30.2,87,30.08,10.0,West,5.8,-,N/A,,Overcast,280,2013-10-09 10:41:00
4:53 AM,34.0,30.0,85,30.13,10.0,NW,3.5,-,N/A,,Overcast,310,2013-10-09 10:53:00
5:53 AM,36.0,32.0,86,30.14,10.0,NNW,3.5,-,N/A,,Overcast,340,2013-10-09 11:53:00
6:24 AM,37.4,33.8,87,30.09,10.0,Calm,Calm,-,N/A,,Overcast,0,2013-10-09 12:24:00
6:53 AM,37.9,35.1,89,30.15,10.0,ENE,3.5,-,N/A,,Overcast,60,2013-10-09 12:53:00
7:53 AM,37.0,34.0,89,30.17,10.0,Calm,Calm,-,N/A,,Overcast,0,2013-10-09 13:53:00
8:53 AM,37.0,33.1,86,30.20,10.0,Calm,Calm,-,N/A,,Overcast,0,2013-10-09 14:53:00
9:44 AM,39.2,35.6,87,30.11,10.0,NNE,5.8,-,N/A,,Overcast,30,2013-10-09 15:44:00
9:53 AM,39.9,35.1,83,30.19,10.0,NNE,5.8,-,N/A,,Overcast,30,2013-10-09 15:53:00
10:53 AM,41.0,36.0,82,30.19,10.0,Calm,Calm,-,N/A,,Overcast,0,2013-10-09 16:53:00
11:53 AM,43.0,36.0,76,30.19,10.0,East,4.6,-,N/A,,Overcast,100,2013-10-09 17:53:00
12:21 PM,42.8,35.6,76,30.07,10.0,Calm,Calm,-,N/A,,Overcast,0,2013-10-09 18:21:00
12:53 PM,46.0,36.0,68,30.15,10.0,Calm,Calm,-,N/A,,Overcast,0,2013-10-09 18:53:00
1:53 PM,48.0,35.1,61,30.09,10.0,Calm,Calm,-,N/A,,Partly Cloudy,0,2013-10-09 19:53:00
2:53 PM,50.0,34.0,54,30.06,10.0,South,4.6,-,N/A,,Clear,190,2013-10-09 20:53:00
3:53 PM,51.1,34.0,52,30.03,10.0,West,4.6,-,N/A,,Clear,280,2013-10-09 21:53:00
4:53 PM,51.1,34.0,52,29.99,10.0,WSW,4.6,-,N/A,,Clear,250,2013-10-09 22:53:00
5:53 PM,48.9,33.1,54,29.97,10.0,West,4.6,-,N/A,,Clear,260,2013-10-09 23:53:00
6:53 PM,39.9,30.9,70,29.98,10.0,WSW,6.9,-,N/A,,Clear,240,2013-10-10 00:53:00
7:53 PM,36.0,30.0,79,29.98,10.0,SSW,6.9,-,N/A,,Clear,210,2013-10-10 01:53:00
8:53 PM,35.1,30.9,85,29.96,10.0,SSW,6.9,-,N/A,,Clear,200,2013-10-10 02:53:00
9:53 PM,41.0,33.1,73,29.91,10.0,South,3.5,-,N/A,,Clear,180,2013-10-10 03:53:00
10:53 PM,32.0,28.9,88,29.93,10.0,Calm,Calm,-,N/A,,Clear,0,2013-10-10 04:53:00
11:53 PM,32.0,28.9,88,29.90,10.0,SW,4.6,-,N/A,,Clear,220,2013-10-10 05:53:00